User: anonymous   Login
Location: Unspecified
(0.0000°N, 0.0000°E)
Time: 04:23:31
(UTC+00:00)
Language:

Navstar 5 - Orbit

View from above orbital plane
View from above orbital plane
View from above satellite
View from above satellite

Ground track
Ground track

The orbit data is extracted from the following two-line orbital elements,

1 11690U 80011A   18291.69015447 +.00000070 +00000-0 +00000-0 0  9991
2 11690 063.2925 135.3767 0458416 196.4158 125.0155 02.00573115297595
Epoch (UTC): 18 October 2018 16:33:49
Eccentricity: 0.0458416
inclination: 63.2925°
perigee height: 18963 km
apogee height: 21398 km
right ascension of ascending node: 135.3767°
argument of perigee: 196.4158°
revolutions per day: 2.00573115
mean anomaly at epoch: 125.0155°
orbit number at epoch: 29759

The dashed part of the orbit path shows where the satellite is in the earth's shadow,  

DLR